User: anonymous   Login
Location: Unspecified
(0.0000°N, 0.0000°E)
Time: 20:29:57
(UTC+00:00)
Language:

CANX 3B (BRITE-ASRA) - Orbit

View from above orbital plane
View from above orbital plane
View from above satellite
View from above satellite

Ground track
Ground track

The orbit data is extracted from the following two-line orbital elements,

1 39091U 13009F   16272.07653236  .00000045  00000-0  31383-4 0  9996
2 39091  98.5710 113.1128 0010762  11.5798 348.5633 14.34993851187902
Epoch (UTC): 28 September 2016 01:50:12
Eccentricity: 0.0010762
inclination: 98.5710°
perigee height: 767 km
apogee height: 783 km
right ascension of ascending node: 113.1128°
argument of perigee: 11.5798°
revolutions per day: 14.34993851
mean anomaly at epoch: 348.5633°
orbit number at epoch: 18790

The dashed part of the orbit path shows where the satellite is in the earth's shadow,  

DLR